Salem, IL

3:14 AM CDT on April 29, 2017 (GMT -0500)
Salem-Leckrone

Weather History for KSLO - December, 2012

Change the Weather History Date:

Thursday, December 6, 2012

  Actual Average Record
Temperature  
Mean Temperature 44 °F -  
Max Temperature 53 °F 45 °F 66 °F (1980)
Min Temperature 35 °F 28 °F 5 °F (1977)
Degree Days  
Heating Degree Days 21    
Moisture  
Dew Point 39 °F    
Average Humidity 80    
Maximum Humidity 93    
Minimum Humidity 63    
Precipitation  
Precipitation 0.00 in - - ()
Sea Level Pressure  
Sea Level Pressure 30.05 in    
Wind  
Wind Speed 4 mph (ESE)    
Max Wind Speed 8 mph    
Max Gust Speed -    
Visibility 10 miles    
Events      
Averages and records for this station are not official NWS values.
T = Trace of Precipitation, MM = Missing Value Source: NWS Daily Summary

Daily Weather History Graph

Daily Weather History Graph

Search for Another Location

Airport or City:

Trip Planner

Search our weather history database for the weather conditions in past years. The results will help you decide how hot, cold, wet, or windy it might be!

Date:

Astronomy

Dec. 06, 2012 Rise Set
Actual Time 6:59 AM CST 4:34 PM CST
Civil Twilight 6:30 AM CST 5:03 PM CST
Nautical Twilight 5:57 AM CST 5:37 PM CST
Astronomical Twilight 5:24 AM CST 6:09 PM CST
Moon No Moon Rise 11:56 AM CST (12/6)
Length of Visible Light 10h 33m
Length of Day
9h 34m
Waning Gibbous, 49% of the Moon is Illuminated
Dec 6
Waning Gibbous
Dec 13
New
Dec 19
First Quarter
Dec 28
Full
Jan 4
Last Quarter

Hourly Weather History & Observations

Time (CST) Temp. Windchill Dew Point Humidity Pressure Visibility Wind Dir Wind Speed Gust Speed Precip Events Conditions
12:02 AM 39.2 °F 37.0 °F 33.8 °F 81% 30.18 in 10.0 mi East 3.5 mph - N/A   Clear
12:23 AM 39.2 °F 37.0 °F 33.8 °F 81% 30.16 in 10.0 mi East 3.5 mph - N/A   Clear
12:42 AM 39.2 °F 37.0 °F 33.8 °F 81% 30.15 in 10.0 mi East 3.5 mph - N/A   Clear
1:06 AM 39.2 °F 37.0 °F 33.8 °F 81% 30.16 in 10.0 mi East 3.5 mph - N/A   Clear
1:22 AM 39.2 °F 37.0 °F 33.8 °F 81% 30.16 in 10.0 mi East 3.5 mph - N/A   Clear
1:43 AM 37.4 °F 33.8 °F 33.8 °F 87% 30.16 in 10.0 mi East 4.6 mph - N/A   Clear
2:03 AM 37.4 °F 33.8 °F 33.8 °F 87% 30.17 in 10.0 mi East 4.6 mph - N/A   Clear
2:23 AM 37.4 °F 33.8 °F 33.8 °F 87% 30.16 in 10.0 mi East 4.6 mph - N/A   Clear
2:43 AM 37.4 °F 33.8 °F 33.8 °F 87% 30.16 in 10.0 mi East 4.6 mph - N/A   Clear
3:03 AM 37.4 °F 33.8 °F 33.8 °F 87% 30.15 in 10.0 mi East 4.6 mph - N/A   Clear
3:23 AM 37.4 °F 33.8 °F 33.8 °F 87% 30.15 in 10.0 mi East 4.6 mph - N/A   Clear
3:44 AM 37.4 °F 32.8 °F 33.8 °F 87% 30.13 in 10.0 mi East 5.8 mph - N/A   Clear
4:04 AM 37.4 °F 31.4 °F 33.8 °F 87% 30.13 in 10.0 mi ESE 8.1 mph - N/A   Clear
4:24 AM 37.4 °F 32.1 °F 33.8 °F 87% 30.12 in 10.0 mi ESE 6.9 mph - N/A   Clear
4:44 AM 37.4 °F 32.8 °F 33.8 °F 87% 30.12 in 10.0 mi ESE 5.8 mph - N/A   Clear
5:05 AM 37.4 °F 33.8 °F 33.8 °F 87% 30.11 in 10.0 mi ESE 4.6 mph - N/A   Clear
5:25 AM 37.4 °F 32.8 °F 33.8 °F 87% 30.12 in 10.0 mi ESE 5.8 mph - N/A   Clear
5:45 AM 37.4 °F 33.8 °F 33.8 °F 87% 30.13 in 10.0 mi East 4.6 mph - N/A   Clear
6:05 AM 37.4 °F 34.9 °F 33.8 °F 87% 30.12 in 10.0 mi East 3.5 mph - N/A   Clear
6:25 AM 37.4 °F 33.8 °F 33.8 °F 87% 30.12 in 10.0 mi East 4.6 mph - N/A   Clear
6:46 AM 37.4 °F 33.8 °F 33.8 °F 87% 30.12 in 10.0 mi East 4.6 mph - N/A   Clear
7:05 AM 35.6 °F 31.7 °F 33.8 °F 93% 30.11 in 10.0 mi East 4.6 mph - N/A   Clear
7:25 AM 35.6 °F 31.7 °F 33.8 °F 93% 30.11 in 10.0 mi East 4.6 mph - N/A   Clear
7:35 AM 36.5 °F 32.7 °F 33.4 °F 89% 30.11 in 10.0 mi East 4.6 mph - N/A   Clear
7:55 AM 37.4 °F 33.8 °F 33.8 °F 87% 30.11 in 10.0 mi East 4.6 mph - N/A   Clear
8:15 AM 38.3 °F 33.9 °F 34.2 °F 85% 30.10 in 10.0 mi ESE 5.8 mph - N/A   Clear
8:35 AM 39.2 °F 35.0 °F 34.3 °F 83% 30.10 in 10.0 mi ESE 5.8 mph - N/A   Scattered Clouds
8:55 AM 39.7 °F 34.9 °F 34.9 °F 83% 30.10 in 10.0 mi ESE 6.9 mph - N/A   Scattered Clouds
9:15 AM 41.0 °F 36.4 °F 36.0 °F 82% 30.10 in 10.0 mi ESE 6.9 mph - N/A   Scattered Clouds
9:35 AM 42.1 °F 37.1 °F 36.5 °F 81% 30.09 in 10.0 mi ESE 8.1 mph - N/A   Scattered Clouds
9:55 AM 42.8 °F 40.1 °F 37.0 °F 80% 30.09 in 10.0 mi ESE 4.6 mph - N/A   Scattered Clouds
10:15 AM 44.1 °F 41.5 °F 37.4 °F 77% 30.09 in 10.0 mi ESE 4.6 mph - N/A   Scattered Clouds
10:35 AM 45.0 °F 42.6 °F 37.9 °F 76% 30.08 in 10.0 mi SE 4.6 mph - N/A   Scattered Clouds
10:55 AM 45.7 °F 44.4 °F 38.3 °F 75% 30.07 in 10.0 mi SE 3.5 mph - N/A   Overcast
11:15 AM 45.9 °F 43.6 °F 38.3 °F 75% 30.05 in 10.0 mi SSE 4.6 mph - N/A   Overcast
11:35 AM 46.8 °F - 39.0 °F 74% 30.04 in 10.0 mi SSE 3.5 mph - N/A   Overcast
11:55 AM 47.7 °F - 39.4 °F 73% 30.04 in 10.0 mi South 3.5 mph - N/A   Overcast
12:15 PM 48.6 °F - 40.1 °F 73% 30.03 in 10.0 mi SSE 4.6 mph - N/A   Overcast
12:35 PM 49.6 °F - 40.5 °F 71% 30.01 in 10.0 mi South 3.5 mph - N/A   Overcast
12:55 PM 50.7 °F - 40.5 °F 68% 30.00 in 10.0 mi Calm Calm - N/A   Overcast
1:15 PM 51.1 °F - 40.5 °F 67% 29.99 in 10.0 mi SE 3.5 mph - N/A   Overcast
1:35 PM 52.0 °F - 40.5 °F 65% 29.99 in 10.0 mi Calm Calm - N/A   Overcast
1:55 PM 52.7 °F - 41.2 °F 65% 29.99 in 10.0 mi Calm Calm - N/A   Overcast
2:15 PM 53.2 °F - 41.5 °F 65% 29.99 in 10.0 mi Calm Calm - N/A   Overcast
2:35 PM 53.2 °F - 41.2 °F 64% 29.99 in 10.0 mi South 3.5 mph - N/A   Mostly Cloudy
2:55 PM 53.4 °F - 41.2 °F 63% 29.97 in 10.0 mi ESE 3.5 mph - N/A   Mostly Cloudy
3:15 PM 52.9 °F - 41.7 °F 66% 29.97 in 10.0 mi SE 3.5 mph - N/A   Mostly Cloudy
3:35 PM 52.7 °F - 41.5 °F 66% 29.97 in 10.0 mi Calm Calm - N/A   Overcast
3:55 PM 52.7 °F - 41.7 °F 66% 29.97 in 10.0 mi SE 4.6 mph - N/A   Overcast
4:15 PM 51.8 °F - 41.9 °F 69% 29.97 in 10.0 mi SE 5.8 mph - N/A   Overcast
4:35 PM 50.9 °F - 41.9 °F 71% 29.97 in 10.0 mi SE 6.9 mph - N/A   Mostly Cloudy
4:55 PM 50.2 °F - 41.9 °F 73% 29.97 in 10.0 mi SE 4.6 mph - N/A   Mostly Cloudy
5:15 PM 50.0 °F - 41.9 °F 74% 29.97 in 10.0 mi SE 4.6 mph - N/A   Scattered Clouds
5:35 PM 49.6 °F - 42.1 °F 75% 29.96 in 10.0 mi ESE 4.6 mph - N/A   Scattered Clouds
5:55 PM 49.5 °F - 42.3 °F 76% 29.97 in 10.0 mi Calm Calm - N/A   Mostly Cloudy
6:15 PM 49.3 °F - 42.8 °F 78% 29.96 in 10.0 mi SE 3.5 mph - N/A   Mostly Cloudy
6:35 PM 49.5 °F - 42.8 °F 78% 29.97 in 10.0 mi ESE 3.5 mph - N/A   Overcast
6:55 PM 49.5 °F - 43.0 °F 78% 29.97 in 10.0 mi ESE 3.5 mph - N/A   Mostly Cloudy
7:15 PM 49.3 °F - 43.3 °F 80% 29.97 in 10.0 mi ESE 4.6 mph - N/A   Mostly Cloudy
7:35 PM 49.3 °F - 43.7 °F 81% 29.97 in 10.0 mi SE 4.6 mph - N/A   Mostly Cloudy
7:55 PM 49.5 °F - 43.7 °F 81% 29.97 in 10.0 mi Calm Calm - N/A   Mostly Cloudy
8:35 PM 49.1 °F - 43.9 °F 82% 29.97 in 10.0 mi Calm Calm - N/A   Mostly Cloudy
8:55 PM 49.1 °F - 44.2 °F 83% 29.97 in 10.0 mi SE 3.5 mph - N/A   Mostly Cloudy
9:15 PM 49.3 °F - 44.6 °F 84% 29.96 in 10.0 mi SE 5.8 mph - N/A   Scattered Clouds
9:35 PM 49.5 °F - 44.8 °F 84% 29.96 in 10.0 mi SSE 4.6 mph - N/A   Clear
9:55 PM 49.6 °F - 45.0 °F 84% 29.96 in 10.0 mi SSE 3.5 mph - N/A   Clear
10:15 PM 49.5 °F - 45.5 °F 86% 29.97 in 7.0 mi South 4.6 mph - N/A   Scattered Clouds
10:35 PM 49.1 °F - 45.1 °F 86% 29.97 in 10.0 mi Calm Calm - N/A   Overcast
10:55 PM 49.5 °F - 45.5 °F 86% 29.97 in 10.0 mi Calm Calm - N/A   Overcast
11:15 PM 49.3 °F - 45.5 °F 87% 29.96 in 7.0 mi Calm Calm - N/A   Mostly Cloudy
11:35 PM 48.0 °F - 45.3 °F 90% 29.95 in 7.0 mi Calm Calm - N/A   Scattered Clouds
11:55 PM 48.2 °F - 45.7 °F 91% 29.96 in 10.0 mi Calm Calm - N/A   Clear